Regional Weather Roundup
Issued by NWS

Home | Current Version | Previous Version | Text Only | Print | Product List | Glossary Off
Versions: 1 2 3 4 5 6 7 8 9 10 11 12 13 14 15 16 17 18 19 20 21 22 23 24 25 26 27 28 29 30 31 32 33 34 35 36 37 38 39 40 41 42 43 44 45 46 47 48 49 50

000
ASUS43 KDTX 260510
RWRMI
MICHIGAN HOURLY REGIONAL WEATHER ROUNDUP
NATIONAL WEATHER SERVICE DETROIT/PONTIAC MI
100 AM EDT TUE MAY 26 2015

NOTE: "FAIR" INDICATES FEW OR NO CLOUDS BELOW 12,000 FEET WITH NO
SIGNIFICANT WEATHER AND/OR OBSTRUCTION TO VISIBILITY.

MIZ047>049-052>055-059>063-066>070-074>076-081>083-260600-
SOUTHEAST LOWER MICHIGAN

CITY           SKY/WX    TMP DP  RH WIND       PRES   REMARKS
ADRIAN         CLOUDY    70  62  76 SW13      30.06R
ALMA           PTCLDY    65  61  84 S6        29.98R
ANN ARBOR      CLOUDY    68  61  78 S7        30.04R
BAD AXE        CLOUDY    65  60  82 SW6       29.97S
CARO           CLOUDY    63  59  88 S5        29.97S
DETROIT CITY   CLOUDY    73  61  65 SW9       30.03R
DETROIT        CLOUDY    73  62  68 S12       30.05R
FLINT          CLOUDY    68  62  81 S7        30.00R
GROSSE ILE     CLOUDY    72  64  78 SW9       30.03R
HILLSDALE      CLOUDY    69  64  83 S7        30.05S
HOWELL         CLOUDY    68  62  80 SW6       30.02R

CITY           SKY/WX    TMP DP  RH WIND       PRES   REMARKS
JACKSON        CLOUDY    69  61  75 S8        30.03R
LAMBERTVILLE   CLOUDY    72  61  68 SW12      30.07R
LANSING        MOCLDY    66  60  81 S7        30.01R
LAPEER         FAIR      64  61  88 S5        30.01R
MASON          CLOUDY    66  60  79 CALM      30.02R
MONROE         CLOUDY    72  63  73 SW12      30.04R
MT. CLEMENS    CLOUDY    74  62  66 SW9       30.00R
PONTIAC        CLOUDY    70  62  76 S7        30.01R
PORT HOPE        N/A    N/A N/A N/A SW7       29.93S
PORT HURON     CLOUDY    66  63  88 S3        30.02R
TRI CITIES     MOCLDY    68  60  75 S8        29.97R
MIDLAND        FAIR      67  59  77 S5        29.95R
TROY           CLOUDY    74  61  62 SW10G16   30.04R
SAGINAW HB     CLOUDY    66  59  77 S10       29.96S
$$
MIZ043>046-050>051-056>058-064>065-071>073-077>080-260600-
SOUTHWEST LOWER MICHIGAN

CITY           SKY/WX    TMP DP  RH WIND       PRES   REMARKS
BATTLE CREEK   CLEAR     69  61  75 S13       30.02R
BENTON HARBOR  PTCLDY    69  62  78 S8        29.98S
BIG RAPIDS     CLEAR     66  58  74 S5G17     29.95R
COLDWATER      PTCLDY    69  61  76 SW7       30.03S
FREMONT        FAIR      62  58  85 S5        29.96R
HOLLAND        CLEAR     65  58  78 S6        29.98R
GRAND RAPIDS   CLEAR     66  60  81 S8        29.99R
IONIA          FAIR      67  59  75 S8        29.99R
KALAMAZOO      CLEAR     70  61  73 S10       30.01R
LUDINGTON      PTCLDY    70  61  72 SW18      29.92R
MARSHALL       PTCLDY    70  62  74 S6        30.02S
MOUNT PLEASANT CLEAR     67  59  77 SW5       29.96R
MUSKEGON       PTCLDY    64  54  69 S7        29.96R
SOUTH HAVEN    CLEAR     69  60  72 S7        29.98F
$$
MIZ016>042-260600-
NORTHERN LOWER MICHIGAN

CITY           SKY/WX    TMP DP  RH WIND       PRES   REMARKS
ALPENA         PTCLDY    67  61  81 SW7       29.89R
BEAVER ISLAND  CLOUDY    58  55  89 SW14G21   29.83R
BELLAIRE       HVY RAIN  68  61  78 SW8       29.89R
CADILLAC       CLEAR     64  59  85 SW9       29.94R
CHARLEVOIX     MOCLDY    65  61  86 S9        29.89R
FRANKFORT      PTCLDY    59  50  72 S5        29.90S
GAYLORD        CLEAR     66  62  87 SW13      29.90R
GRAYLING       PTCLDY    66  59  77 S8        29.93S
HARBOR SPRINGS LGT RAIN  61  59  93 CALM      29.85R
HOUGHTON LAKE  CLEAR     65  59  81 SW10      29.94R
MANISTEE       PTCLDY    68  57  68 S8        29.92R
OSCODA         MOCLDY    66  61  84 SW9       29.92R
PELLSTON       LGT RAIN  66  62  87 SW12G23   29.85R
ROGERS CITY    CLEAR     66  61  84 S7        29.87S
TRAVERSE CITY  CLOUDY    69  60  73 VRB6      29.88R
$$
MIZ007>008-015-260600-
EASTERN UPPER MICHIGAN

CITY           SKY/WX    TMP DP  RH WIND       PRES   REMARKS
KINROSS        CLOUDY    57  55  94 SW3       29.83S
MACKINAC ISLAN RAIN      56  55  97 SW7       29.85R
NEWBERRY       MOCLDY    53  52  97 SW12      29.80S
S. S. MARIE    MOCLDY    60  57  89 VRB5      29.81R
MUNISING         N/A     63  60  90 S7        29.77R
$$
MIZ004>006-011>014-085-260600-
CENTRAL UPPER MICHIGAN

CITY           SKY/WX    TMP DP  RH WIND       PRES   REMARKS
MANISTIQUE     CLOUDY    49  48  94 CALM      29.81S
ESCANABA       PTCLDY    57  54  88 SW5       29.80R
MENOMINEE      CLOUDY    64  59  82 SW8       29.83R
SAWYER-GWINN   PTCLDY    60  58  91 SW8       29.79R
$$
MIZ001>003-009>011-084-260600-
WESTERN UPPER MICHIGAN

CITY           SKY/WX    TMP DP  RH WIND       PRES   REMARKS
IRON MOUNTAIN  PTCLDY    63  59  87 S5        29.80R
HOUGHTON       PTCLDY    55  53  93 W12       29.74R
COPPER HARBOR    N/A     44  42  93 N3        29.73R
IRONWOOD       CLOUDY    54  54 100 NW3       29.75R VSB 1/4
$$

ABBREVIATIONS USED IN REMARKS
   TC - TEMPERATURE IN CELSIUS
  WCI - WIND CHILL INDEX
   HX - HEAT INDEX
  VSB - VISIBILITY




USA.gov is the U.S. government's official web portal to all federal, state and local government web resources and services.